Tracking 28565 objects as of 3-Mar-2024
HD Live streaming from Space Station
objects crossing your sky now

ONEWEB-0637

Track ONEWEB-0637 now!
10-day predictions
ONEWEB-0637 is classified as:


NORAD ID: 56078
Int'l Code: 2023-043AJ
Perigee: 1,207.1 km
Apogee: 1,210.7 km
Inclination: 87.9 °
Period: 109.5 minutes
Semi major axis: 7579 km
RCS: Unknown
Launch date: March 26, 2023
Source: United Kingdom (UK)
Launch site: SRIHARIKOTA (SRI)
Your satellite tracking list
Your tracking list is empty




NASA's NSSDC Master Catalog

Two Line Element Set (TLE):
1 56078U 23043AJ  24063.48802064 -.00000063  00000-0 -20239-3 0  9995
2 56078  87.8954  65.5342 0002386  90.6291 269.5113 13.15546746 46559
Source of the keplerian elements: AFSPC